,,,PA_Meas_PMT16A,,PR_Meas_QMR101_102,,RH_Meas_QMH101,,SR_Meas_QMS101,,TA_Meas_QMH101,,GenWind,,GenWind,
date,time,status,PA,status,PR,status,RH,status,SR,status,TA,status,DirAvg,status,SpdAvg,
2012-04-10, 00:00:04,VALID,1004.88,VALID,0,VALID,90.2191,VALID,0.0815089,VALID,24.8503,VALID,350,VALID,0.342578,
2012-04-10, 00:01:04,VALID,1004.89,VALID,0,VALID,90.4251,VALID,0.0815089,VALID,24.8679,VALID,350,VALID,0.225,
2012-04-10, 00:02:04,VALID,1004.87,VALID,0,VALID,90.3259,VALID,0,VALID,24.8873,VALID,350,VALID,0.152734,
2012-04-10, 00:03:04,VALID,1004.88,VALID,0,VALID,90.0666,VALID,0.0815089,VALID,24.9476,VALID,46,VALID,0.570313,
2012-04-10, 00:04:04,VALID,1004.86,VALID,0,VALID,89.8987,VALID,0,VALID,24.9671,VALID,65,VALID,0.499219,
2012-04-10, 00:05:04,VALID,1004.9,VALID,0,VALID,89.6012,VALID,0.0815089,VALID,24.9652,VALID,65,VALID,0.485547,
2012-04-10, 00:06:04,VALID,1004.87,VALID,0,VALID,89.5097,VALID,0.0815089,VALID,24.9866,VALID,65,VALID,0.0375,
2012-04-10, 00:07:04,VALID,1004.91,VALID,0,VALID,89.4486,VALID,0.0815089,VALID,24.9652,VALID,65,VALID,0,
2012-04-10, 00:08:04,VALID,1004.87,VALID,0,VALID,89.3952,VALID,0.0815089,VALID,24.9457,VALID,65,VALID,0,
2012-04-10, 00:09:04,VALID,1004.91,VALID,0,VALID,89.2884,VALID,0,VALID,24.9476,VALID,65,VALID,0,
2012-04-10, 00:10:04,VALID,1004.91,VALID,0,VALID,89.3494,VALID,0,VALID,24.9495,VALID,65,VALID,0,
2012-04-10, 00:11:04,VALID,1004.89,VALID,0,VALID,89.3723,VALID,0,VALID,24.93,VALID,65,VALID,0,
2012-04-10, 00:12:04,VALID,1004.92,VALID,0,VALID,89.5631,VALID,0,VALID,24.93,VALID,65,VALID,0,
2012-04-10, 00:13:04,VALID,1004.94,VALID,0,VALID,89.6775,VALID,0,VALID,24.9495,VALID,65,VALID,0.33125,
2012-04-10, 00:14:04,VALID,1004.92,VALID,0,VALID,89.5707,VALID,0,VALID,24.9671,VALID,65,VALID,0.18125,
2012-04-10, 00:15:04,VALID,1004.93,VALID,0,VALID,89.4334,VALID,0,VALID,25.0079,VALID,65,VALID,0.278125,
2012-04-10, 00:16:04,VALID,1004.87,VALID,0,VALID,89.3189,VALID,0,VALID,25.0255,VALID,36,VALID,0.762891,
2012-04-10, 00:17:04,VALID,1004.89,VALID,0,VALID,89.1282,VALID,0,VALID,25.0079,VALID,11,VALID,0.837891,
2012-04-10, 00:18:04,VALID,1004.87,VALID,0,VALID,89.235,VALID,0,VALID,24.93,VALID,358,VALID,1.03437,
2012-04-10, 00:19:04,VALID,1004.82,VALID,0,VALID,89.5325,VALID,0,VALID,24.8503,VALID,355,VALID,0.689062,
2012-04-10, 00:20:04,VALID,1004.76,VALID,0,VALID,89.9521,VALID,0,VALID,24.7724,VALID,355,VALID,0.770703,
2012-04-10, 00:21:04,VALID,1004.72,VALID,0,VALID,90.1581,VALID,0,VALID,24.7335,VALID,355,VALID,0.80625,
2012-04-10, 00:22:04,VALID,1004.71,VALID,0,VALID,90.2802,VALID,0,VALID,24.714,VALID,355,VALID,0.889844,
2012-04-10, 00:23:04,VALID,1004.65,VALID,0,VALID,90.4709,VALID,0,VALID,24.7548,VALID,352,VALID,0.963672,
2012-04-10, 00:24:04,VALID,1004.65,VALID,0,VALID,90.3259,VALID,0,VALID,24.714,VALID,352,VALID,0.789063,
2012-04-10, 00:25:04,VALID,1004.62,VALID,0,VALID,90.387,VALID,0,VALID,24.7335,VALID,350,VALID,0.821094,
2012-04-10, 00:26:04,VALID,1004.61,VALID,0,VALID,90.2725,VALID,0,VALID,24.7724,VALID,346,VALID,0.783594,
2012-04-10, 00:27:04,VALID,1004.62,VALID,0,VALID,90.3565,VALID,0,VALID,24.7937,VALID,343,VALID,0.682422,
2012-04-10, 00:28:04,VALID,1004.62,VALID,0,VALID,90.3565,VALID,0,VALID,24.8327,VALID,344,VALID,0.624609,
2012-04-10, 00:29:04,VALID,1004.61,VALID,0,VALID,90.2039,VALID,0,VALID,24.8503,VALID,345,VALID,0.660156,
2012-04-10, 00:30:04,VALID,1004.58,VALID,0,VALID,90.0208,VALID,0,VALID,24.8911,VALID,339,VALID,0.719531,
2012-04-10, 00:31:04,VALID,1004.59,VALID,0,VALID,89.9292,VALID,0,VALID,24.8892,VALID,343,VALID,0.699219,
2012-04-10, 00:32:04,VALID,1004.55,VALID,0,VALID,89.7385,VALID,0,VALID,24.969,VALID,344,VALID,0.677734,
2012-04-10, 00:33:04,VALID,1004.52,VALID,0,VALID,89.5859,VALID,0,VALID,24.9282,VALID,344,VALID,0.603516,
2012-04-10, 00:34:04,VALID,1004.49,VALID,0,VALID,89.5631,VALID,0,VALID,24.9495,VALID,344,VALID,0.610156,
2012-04-10, 00:35:04,VALID,1004.46,VALID,0,VALID,89.6317,VALID,0,VALID,24.9495,VALID,344,VALID,0.566016,
2012-04-10, 00:36:04,VALID,1004.45,VALID,0,VALID,89.7233,VALID,0,VALID,24.9087,VALID,344,VALID,0.605859,
2012-04-10, 00:37:04,VALID,1004.44,VALID,0,VALID,89.7004,VALID,0,VALID,24.9087,VALID,344,VALID,0.635547,
2012-04-10, 00:38:04,VALID,1004.4,VALID,0,VALID,89.769,VALID,0,VALID,24.9087,VALID,343,VALID,0.604688,
2012-04-10, 00:39:04,VALID,1004.41,VALID,0,VALID,89.8453,VALID,0,VALID,24.93,VALID,342,VALID,0.630859,
2012-04-10, 00:40:04,VALID,1004.39,VALID,0,VALID,89.9369,VALID,0,VALID,24.93,VALID,342,VALID,0.609766,
2012-04-10, 00:41:04,VALID,1004.37,VALID,0,VALID,89.8301,VALID,0,VALID,24.9495,VALID,342,VALID,0.488672,
2012-04-10, 00:42:04,VALID,1004.36,VALID,0,VALID,89.8072,VALID,0,VALID,24.9282,VALID,342,VALID,0.609766,
2012-04-10, 00:43:04,VALID,1004.37,VALID,0,VALID,89.8835,VALID,0,VALID,24.969,VALID,337,VALID,0.4375,
2012-04-10, 00:44:04,VALID,1004.36,VALID,0,VALID,89.6546,VALID,0,VALID,24.9671,VALID,349,VALID,0.433203,
2012-04-10, 00:45:04,VALID,1004.34,VALID,0,VALID,89.5631,VALID,0,VALID,24.9671,VALID,352,VALID,0,
2012-04-10, 00:46:04,VALID,1004.35,VALID,0,VALID,89.5249,VALID,0,VALID,24.9885,VALID,352,VALID,0,
2012-04-10, 00:47:04,VALID,1004.33,VALID,0,VALID,89.4944,VALID,0,VALID,24.9476,VALID,352,VALID,0,
2012-04-10, 00:48:04,VALID,1004.32,VALID,0,VALID,89.5097,VALID,0,VALID,24.9282,VALID,352,VALID,0,
2012-04-10, 00:49:04,VALID,1004.31,VALID,0,VALID,89.5325,VALID,0,VALID,24.9282,VALID,352,VALID,0,
2012-04-10, 00:50:04,VALID,1004.3,VALID,0,VALID,89.6012,VALID,0,VALID,24.93,VALID,352,VALID,0,
2012-04-10, 00:51:04,VALID,1004.3,VALID,0,VALID,89.7004,VALID,0,VALID,24.9087,VALID,352,VALID,0,
2012-04-10, 00:52:04,VALID,1004.28,VALID,0,VALID,89.7309,VALID,0,VALID,24.8697,VALID,352,VALID,0,
2012-04-10, 00:53:04,VALID,1004.27,VALID,0,VALID,89.7233,VALID,0,VALID,24.8716,VALID,352,VALID,0.00429688,
2012-04-10, 00:54:04,VALID,1004.26,VALID,0,VALID,89.769,VALID,0,VALID,24.8308,VALID,352,VALID,0,
2012-04-10, 00:55:04,VALID,1004.28,VALID,0,VALID,89.914,VALID,0,VALID,24.7919,VALID,352,VALID,0.290234,
2012-04-10, 00:56:04,VALID,1004.3,VALID,0,VALID,90.0132,VALID,0,VALID,24.7919,VALID,352,VALID,0.289844,
2012-04-10, 00:57:04,VALID,1004.33,VALID,0,VALID,90.1276,VALID,0,VALID,24.7335,VALID,352,VALID,0.223828,
2012-04-10, 00:58:04,VALID,1004.33,VALID,0,VALID,90.4938,VALID,0,VALID,24.7353,VALID,352,VALID,0.145313,
2012-04-10, 00:59:04,VALID,1004.36,VALID,0,VALID,90.4556,VALID,0,VALID,24.714,VALID,352,VALID,0,
2012-04-10, 01:00:04,VALID,1004.37,VALID,0,VALID,90.5319,VALID,0,VALID,24.7159,VALID,352,VALID,0.326953,
2012-04-10, 01:01:04,VALID,1004.36,VALID,0,VALID,90.6464,VALID,0,VALID,24.6964,VALID,352,VALID,0.128516,
2012-04-10, 01:02:04,VALID,1004.35,VALID,0,VALID,90.6616,VALID,0,VALID,24.6556,VALID,352,VALID,0,
2012-04-10, 01:03:04,VALID,1004.35,VALID,0,VALID,90.7379,VALID,0,VALID,24.6361,VALID,352,VALID,0,
2012-04-10, 01:04:04,VALID,1004.32,VALID,0,VALID,90.8752,VALID,0,VALID,24.6361,VALID,352,VALID,0.269141,
2012-04-10, 01:05:04,VALID,1004.28,VALID,0,VALID,90.9363,VALID,0,VALID,24.5777,VALID,352,VALID,0,
2012-04-10, 01:06:04,VALID,1004.3,VALID,0,VALID,91.0659,VALID,0,VALID,24.5777,VALID,352,VALID,0,
2012-04-10, 01:07:04,VALID,1004.28,VALID,0,VALID,91.1499,VALID,0,VALID,24.599,VALID,352,VALID,0.220313,
2012-04-10, 01:08:04,VALID,1004.25,VALID,0,VALID,91.1499,VALID,0,VALID,24.5582,VALID,352,VALID,0.340625,
2012-04-10, 01:09:04,VALID,1004.23,VALID,0,VALID,91.2262,VALID,0,VALID,24.5796,VALID,352,VALID,0,
2012-04-10, 01:10:04,VALID,1004.23,VALID,0,VALID,91.4321,VALID,0,VALID,24.5388,VALID,352,VALID,0,
2012-04-10, 01:11:04,VALID,1004.2,VALID,0,VALID,91.4245,VALID,0,VALID,24.5582,VALID,352,VALID,0,
2012-04-10, 01:12:04,VALID,1004.18,VALID,0,VALID,91.4626,VALID,0,VALID,24.5582,VALID,352,VALID,0,
2012-04-10, 01:13:04,VALID,1004.13,VALID,0,VALID,91.5389,VALID,0,VALID,24.5582,VALID,352,VALID,0.466016,
2012-04-10, 01:14:04,VALID,1004.15,VALID,0,VALID,91.5847,VALID,0,VALID,24.5796,VALID,352,VALID,0.444531,
2012-04-10, 01:15:04,VALID,1004.11,VALID,0,VALID,91.5389,VALID,0.0815089,VALID,24.5796,VALID,352,VALID,0.449609,
2012-04-10, 01:16:04,VALID,1004.11,VALID,0,VALID,91.5084,VALID,0,VALID,24.5388,VALID,352,VALID,0.463672,
2012-04-10, 01:17:04,VALID,1004.11,VALID,0,VALID,91.4703,VALID,0,VALID,24.5406,VALID,352,VALID,0.416797,
2012-04-10, 01:18:04,VALID,1004.09,VALID,0,VALID,91.4092,VALID,0.0815089,VALID,24.4804,VALID,352,VALID,0.218359,
2012-04-10, 01:19:04,VALID,1004.09,VALID,0,VALID,91.394,VALID,0.0815089,VALID,24.4609,VALID,352,VALID,0.186328,
2012-04-10, 01:20:04,VALID,1004.12,VALID,0,VALID,91.5923,VALID,0,VALID,24.4006,VALID,352,VALID,0.465234,
2012-04-10, 01:21:04,VALID,1004.15,VALID,0,VALID,91.8441,VALID,0,VALID,24.4025,VALID,352,VALID,0.563672,
2012-04-10, 01:22:04,VALID,1004.13,VALID,0,VALID,91.9814,VALID,0.0815089,VALID,24.4025,VALID,352,VALID,0.428125,
2012-04-10, 01:23:04,VALID,1004.15,VALID,0,VALID,92.0272,VALID,0,VALID,24.3812,VALID,352,VALID,0.525391,
2012-04-10, 01:24:04,VALID,1004.13,VALID,0,VALID,92.0653,VALID,0.0815089,VALID,24.383,VALID,352,VALID,0.378906,
2012-04-10, 01:25:04,VALID,1004.12,VALID,0,VALID,92.1416,VALID,0,VALID,24.383,VALID,352,VALID,0.382813,
2012-04-10, 01:26:04,VALID,1004.17,VALID,0,VALID,92.2179,VALID,0,VALID,24.4025,VALID,352,VALID,0.165625,
2012-04-10, 01:27:04,VALID,1004.14,VALID,0,VALID,92.2561,VALID,0,VALID,24.4025,VALID,352,VALID,0.168359,
2012-04-10, 01:28:04,VALID,1004.2,VALID,0,VALID,92.2484,VALID,0,VALID,24.4238,VALID,352,VALID,0.105078,
2012-04-10, 01:29:05,VALID,1004.2,VALID,0,VALID,92.4468,VALID,0.0815089,VALID,24.4609,VALID,352,VALID,0.482031,
2012-04-10, 01:30:05,VALID,1004.16,VALID,0,VALID,92.5231,VALID,0,VALID,24.4998,VALID,357,VALID,0.422656,
2012-04-10, 01:31:05,VALID,1004.1,VALID,0,VALID,92.3857,VALID,0,VALID,24.5388,VALID,357,VALID,0.377734,
2012-04-10, 01:32:05,VALID,1004.1,VALID,0,VALID,92.2408,VALID,0.0815089,VALID,24.5796,VALID,359,VALID,0.402734,
2012-04-10, 01:33:05,VALID,1004.11,VALID,0,VALID,92.5307,VALID,0.0815089,VALID,24.6361,VALID,348,VALID,0.751562,
2012-04-10, 01:34:05,VALID,1004.1,VALID,0,VALID,92.2942,VALID,0,VALID,24.714,VALID,339,VALID,0.619922,
2012-04-10, 01:35:05,VALID,1004.09,VALID,0,VALID,92.0958,VALID,0,VALID,24.751,VALID,340,VALID,0.449609,
2012-04-10, 01:36:05,VALID,1004.09,VALID,0,VALID,91.9509,VALID,0.0815089,VALID,24.8503,VALID,4,VALID,0.661328,
2012-04-10, 01:37:05,VALID,1004.08,VALID,0,VALID,91.5542,VALID,0,VALID,24.9087,VALID,360,VALID,0.494531,
2012-04-10, 01:38:05,VALID,1004.1,VALID,0,VALID,91.3101,VALID,0.0815089,VALID,24.9476,VALID,359,VALID,0.622656,
2012-04-10, 01:39:05,VALID,1004.11,VALID,0,VALID,91.0354,VALID,0,VALID,25.0079,VALID,349,VALID,0.426172,
2012-04-10, 01:40:05,VALID,1004.09,VALID,0,VALID,90.8447,VALID,0,VALID,25.0469,VALID,349,VALID,0.474609,
2012-04-10, 01:41:05,VALID,1004.12,VALID,0,VALID,90.5777,VALID,0,VALID,25.0839,VALID,349,VALID,0.487109,
2012-04-10, 01:42:05,VALID,1004.14,VALID,0,VALID,90.4022,VALID,0,VALID,25.1248,VALID,349,VALID,0.789063,
2012-04-10, 01:43:05,VALID,1004.11,VALID,0,VALID,90.1123,VALID,0,VALID,25.1832,VALID,341,VALID,0.408594,
2012-04-10, 01:44:05,VALID,1004.11,VALID,0,VALID,89.8987,VALID,0,VALID,25.2435,VALID,341,VALID,0.51875,
2012-04-10, 01:45:05,VALID,1004.08,VALID,0,VALID,89.7843,VALID,0,VALID,25.2416,VALID,345,VALID,0.416406,
2012-04-10, 01:46:05,VALID,1004.08,VALID,0,VALID,89.5631,VALID,0,VALID,25.3019,VALID,300,VALID,0.192969,
2012-04-10, 01:47:05,VALID,1004.07,VALID,0,VALID,89.4563,VALID,0,VALID,25.3,VALID,341,VALID,0.102734,
2012-04-10, 01:48:05,VALID,1004.06,VALID,0,VALID,89.4639,VALID,0,VALID,25.3195,VALID,341,VALID,0.29375,
2012-04-10, 01:49:05,VALID,1004.06,VALID,0,VALID,89.38,VALID,0,VALID,25.3409,VALID,341,VALID,0.155469,
2012-04-10, 01:50:05,VALID,1004.05,VALID,0,VALID,89.3037,VALID,0,VALID,25.3584,VALID,341,VALID,0.376953,
2012-04-10, 01:51:05,VALID,1004.01,VALID,0,VALID,89.1816,VALID,0,VALID,25.3798,VALID,335,VALID,0.197656,
2012-04-10, 01:52:05,VALID,1004.03,VALID,0,VALID,89.1358,VALID,0,VALID,25.3798,VALID,321,VALID,0.0574219,
2012-04-10, 01:53:05,VALID,1004.04,VALID,0,VALID,89.0901,VALID,0,VALID,25.3779,VALID,330,VALID,0.508984,
2012-04-10, 01:54:05,VALID,1004.02,VALID,0,VALID,88.9756,VALID,0,VALID,25.4149,VALID,247,VALID,0.525391,
2012-04-10, 01:55:05,VALID,1004.02,VALID,0,VALID,88.7773,VALID,0,VALID,25.4539,VALID,342,VALID,0.542969,
2012-04-10, 01:56:05,VALID,1004.04,VALID,0,VALID,88.5866,VALID,0,VALID,25.4948,VALID,316,VALID,0.112891,
2012-04-10, 01:57:05,VALID,1004,VALID,0,VALID,88.4569,VALID,0,VALID,25.5123,VALID,292,VALID,0.895703,
2012-04-10, 01:58:05,VALID,1004.02,VALID,0,VALID,88.2967,VALID,0,VALID,25.5123,VALID,303,VALID,0.782422,
2012-04-10, 01:59:05,VALID,1004.04,VALID,0,VALID,88.1517,VALID,0,VALID,25.5513,VALID,298,VALID,1.00937,
2012-04-10, 02:00:05,VALID,1004.05,VALID,0,VALID,87.9991,VALID,0,VALID,25.5707,VALID,307,VALID,0.362891,
2012-04-10, 02:01:05,VALID,1004.11,VALID,0,VALID,87.8084,VALID,0,VALID,25.6116,VALID,289,VALID,0.7875,
2012-04-10, 02:02:05,VALID,1004.13,VALID,0,VALID,87.6711,VALID,0,VALID,25.5902,VALID,285,VALID,0.846094,
2012-04-10, 02:03:05,VALID,1004.13,VALID,0,VALID,87.5033,VALID,0,VALID,25.5902,VALID,307,VALID,0.805078,
2012-04-10, 02:04:05,VALID,1004.13,VALID,0,VALID,87.427,VALID,0,VALID,25.6097,VALID,299,VALID,0.811719,
2012-04-10, 02:05:05,VALID,1004.13,VALID,0,VALID,87.4422,VALID,0,VALID,25.5902,VALID,286,VALID,0.729297,
2012-04-10, 02:06:05,VALID,1004.1,VALID,0,VALID,87.4727,VALID,0,VALID,25.5707,VALID,287,VALID,0.424609,
2012-04-10, 02:07:05,VALID,1004.08,VALID,0,VALID,87.5033,VALID,0,VALID,25.5727,VALID,288,VALID,0.20625,
2012-04-10, 02:08:05,VALID,1004.06,VALID,0,VALID,87.5872,VALID,0,VALID,25.5513,VALID,288,VALID,0.477344,
2012-04-10, 02:09:05,VALID,1004.06,VALID,0,VALID,87.6101,VALID,0,VALID,25.5123,VALID,296,VALID,0.464844,
2012-04-10, 02:10:05,VALID,1004.02,VALID,0,VALID,87.6635,VALID,0,VALID,25.5123,VALID,299,VALID,0.296094,
2012-04-10, 02:11:05,VALID,1004.04,VALID,0,VALID,87.7169,VALID,0,VALID,25.4928,VALID,299,VALID,0.124609,
2012-04-10, 02:12:05,VALID,1004.05,VALID,0,VALID,87.8237,VALID,0,VALID,25.4539,VALID,299,VALID,0,
2012-04-10, 02:13:05,VALID,1004.04,VALID,0,VALID,87.9381,VALID,0,VALID,25.4558,VALID,299,VALID,0.251172,
2012-04-10, 02:14:05,VALID,1004.02,VALID,0,VALID,88.0831,VALID,0,VALID,25.3955,VALID,299,VALID,0,
2012-04-10, 02:15:05,VALID,1004,VALID,0,VALID,88.1517,VALID,0,VALID,25.4149,VALID,294,VALID,0.380859,
2012-04-10, 02:16:05,VALID,1004.05,VALID,0,VALID,88.1288,VALID,0,VALID,25.376,VALID,294,VALID,0.0628906,
2012-04-10, 02:17:05,VALID,1004,VALID,0,VALID,88.167,VALID,0,VALID,25.3584,VALID,305,VALID,0.584375,
2012-04-10, 02:18:05,VALID,1004.02,VALID,0,VALID,88.289,VALID,0,VALID,25.2786,VALID,332,VALID,0.549609,
2012-04-10, 02:19:05,VALID,1003.98,VALID,0,VALID,88.6552,VALID,0,VALID,25.1813,VALID,336,VALID,0.621484,
2012-04-10, 02:20:05,VALID,1003.95,VALID,0,VALID,89.0672,VALID,0,VALID,25.1248,VALID,336,VALID,0.662109,
2012-04-10, 02:21:05,VALID,1003.93,VALID,0,VALID,89.3952,VALID,0,VALID,25.006,VALID,337,VALID,0.638281,
2012-04-10, 02:22:05,VALID,1003.9,VALID,0,VALID,89.7004,VALID,0,VALID,24.93,VALID,337,VALID,0.517969,
2012-04-10, 02:23:05,VALID,1003.89,VALID,0,VALID,90.0055,VALID,0,VALID,24.8503,VALID,337,VALID,0.582812,
2012-04-10, 02:24:05,VALID,1003.87,VALID,0,VALID,90.3336,VALID,0,VALID,24.7743,VALID,337,VALID,0.548828,
2012-04-10, 02:25:05,VALID,1003.83,VALID,0,VALID,90.5396,VALID,0,VALID,24.6769,VALID,337,VALID,0.608203,
2012-04-10, 02:26:05,VALID,1003.82,VALID,0,VALID,90.9286,VALID,0,VALID,24.638,VALID,337,VALID,0.6125,
2012-04-10, 02:27:05,VALID,1003.79,VALID,0,VALID,91.2567,VALID,0,VALID,24.599,VALID,337,VALID,0.507031,
2012-04-10, 02:28:05,VALID,1003.75,VALID,0,VALID,91.7525,VALID,0,VALID,24.5796,VALID,344,VALID,1.12461,
2012-04-10, 02:29:05,VALID,1003.76,VALID,0,VALID,91.8822,VALID,0,VALID,24.5972,VALID,346,VALID,0.371094,
2012-04-10, 02:30:05,VALID,1003.73,VALID,0,VALID,91.8288,VALID,0,VALID,24.6166,VALID,346,VALID,0.476172,
2012-04-10, 02:31:05,VALID,1003.71,VALID,0,VALID,91.9662,VALID,0,VALID,24.6361,VALID,346,VALID,0.769922,
2012-04-10, 02:32:05,VALID,1003.7,VALID,0,VALID,91.9204,VALID,0,VALID,24.6945,VALID,338,VALID,0.574609,
2012-04-10, 02:33:05,VALID,1003.67,VALID,0,VALID,91.7525,VALID,0,VALID,24.7335,VALID,335,VALID,0.739062,
2012-04-10, 02:34:05,VALID,1003.65,VALID,0,VALID,91.3711,VALID,0,VALID,24.8113,VALID,353,VALID,0.740625,
2012-04-10, 02:35:05,VALID,1003.65,VALID,0,VALID,90.9668,VALID,0,VALID,24.8911,VALID,352,VALID,0.816016,
2012-04-10, 02:36:05,VALID,1003.64,VALID,0,VALID,90.6006,VALID,0,VALID,24.9476,VALID,326,VALID,1.2043,
2012-04-10, 02:37:05,VALID,1003.66,VALID,0,VALID,90.2344,VALID,0,VALID,25.006,VALID,340,VALID,0.120703,
2012-04-10, 02:38:05,VALID,1003.71,VALID,0,VALID,90.0132,VALID,0,VALID,25.0255,VALID,325,VALID,0.271875,
2012-04-10, 02:39:05,VALID,1003.75,VALID,0,VALID,89.708,VALID,0,VALID,25.1034,VALID,287,VALID,1.09922,
2012-04-10, 02:40:05,VALID,1003.78,VALID,0,VALID,89.2503,VALID,0,VALID,25.1832,VALID,264,VALID,0.244922,
2012-04-10, 02:41:05,VALID,1003.82,VALID,0,VALID,88.907,VALID,0,VALID,25.2202,VALID,264,VALID,0.195703,
2012-04-10, 02:42:05,VALID,1003.87,VALID,0,VALID,88.7544,VALID,0,VALID,25.2397,VALID,346,VALID,0.809375,
2012-04-10, 02:43:05,VALID,1003.91,VALID,0,VALID,88.5026,VALID,0,VALID,25.3,VALID,351,VALID,0.217578,
2012-04-10, 02:44:05,VALID,1003.93,VALID,0,VALID,88.3195,VALID,0,VALID,25.3584,VALID,308,VALID,0.637891,
2012-04-10, 02:45:05,VALID,1003.96,VALID,0,VALID,88.1517,VALID,0,VALID,25.3779,VALID,274,VALID,0.336328,
2012-04-10, 02:46:05,VALID,1003.95,VALID,0,VALID,87.961,VALID,0,VALID,25.3955,VALID,273,VALID,0.234375,
2012-04-10, 02:47:05,VALID,1003.96,VALID,0,VALID,87.8618,VALID,0,VALID,25.3955,VALID,272,VALID,0.169141,
2012-04-10, 02:48:05,VALID,1003.94,VALID,0,VALID,87.9152,VALID,0,VALID,25.3955,VALID,299,VALID,0.129688,
2012-04-10, 02:49:05,VALID,1003.95,VALID,0,VALID,87.9152,VALID,0,VALID,25.4363,VALID,299,VALID,0.1625,
2012-04-10, 02:50:05,VALID,1003.94,VALID,0,VALID,87.9305,VALID,0,VALID,25.3974,VALID,297,VALID,0.463281,
2012-04-10, 02:51:05,VALID,1003.92,VALID,0,VALID,87.8923,VALID,0,VALID,25.4169,VALID,294,VALID,1.09492,
2012-04-10, 02:52:05,VALID,1003.93,VALID,0,VALID,87.8466,VALID,0,VALID,25.3974,VALID,296,VALID,0.890625,
2012-04-10, 02:53:05,VALID,1003.9,VALID,0,VALID,87.8237,VALID,0,VALID,25.3955,VALID,290,VALID,0.376172,
2012-04-10, 02:54:05,VALID,1003.89,VALID,0,VALID,87.8694,VALID,0,VALID,25.3935,VALID,290,VALID,0.0441406,
2012-04-10, 02:55:05,VALID,1003.89,VALID,0,VALID,87.9915,VALID,0.0815089,VALID,25.3935,VALID,290,VALID,0.0148437,
2012-04-10, 02:56:05,VALID,1003.88,VALID,0,VALID,88.1365,VALID,0.0815089,VALID,25.3935,VALID,290,VALID,0.142188,
2012-04-10, 02:57:05,VALID,1003.9,VALID,0,VALID,88.1593,VALID,0.0815089,VALID,25.4149,VALID,346,VALID,0.635938,
2012-04-10, 02:58:05,VALID,1003.89,VALID,0,VALID,88.228,VALID,0,VALID,25.4149,VALID,348,VALID,0.00820312,
2012-04-10, 02:59:05,VALID,1003.85,VALID,0,VALID,88.2356,VALID,0.0815089,VALID,25.3741,VALID,348,VALID,0.537109,
2012-04-10, 03:00:05,VALID,1003.84,VALID,0,VALID,88.2051,VALID,0.0815089,VALID,25.3741,VALID,352,VALID,0.867578,
2012-04-10, 03:01:05,VALID,1003.81,VALID,0,VALID,88.0983,VALID,0.0815089,VALID,25.3741,VALID,352,VALID,1.18164,
2012-04-10, 03:02:05,VALID,1003.81,VALID,0,VALID,88.1517,VALID,0,VALID,25.3741,VALID,354,VALID,0.741406,
2012-04-10, 03:03:05,VALID,1003.74,VALID,0,VALID,88.1593,VALID,0.0815089,VALID,25.3955,VALID,347,VALID,0.925781,
2012-04-10, 03:04:05,VALID,1003.74,VALID,0,VALID,88.1212,VALID,0.0815089,VALID,25.3546,VALID,359,VALID,0.845703,
2012-04-10, 03:05:05,VALID,1003.71,VALID,0,VALID,88.1136,VALID,0.0815089,VALID,25.3546,VALID,357,VALID,0.607031,
2012-04-10, 03:06:05,VALID,1003.7,VALID,0,VALID,88.1517,VALID,0.0815089,VALID,25.3546,VALID,349,VALID,0.782031,
2012-04-10, 03:07:05,VALID,1003.65,VALID,0,VALID,88.1517,VALID,0.0815089,VALID,25.376,VALID,360,VALID,0.897266,
2012-04-10, 03:08:05,VALID,1003.63,VALID,0,VALID,88.1899,VALID,0.0815089,VALID,25.3546,VALID,354,VALID,0.844141,
2012-04-10, 03:09:05,VALID,1003.61,VALID,0,VALID,88.2204,VALID,0,VALID,25.3176,VALID,348,VALID,0.903125,
2012-04-10, 03:10:05,VALID,1003.62,VALID,0,VALID,88.2509,VALID,0,VALID,25.339,VALID,358,VALID,0.540625,
2012-04-10, 03:11:05,VALID,1003.6,VALID,0,VALID,88.2585,VALID,0,VALID,25.3176,VALID,349,VALID,0.593359,
2012-04-10, 03:12:05,VALID,1003.65,VALID,0,VALID,88.2814,VALID,0,VALID,25.3176,VALID,342,VALID,0.959375,
2012-04-10, 03:13:05,VALID,1003.65,VALID,0,VALID,88.1899,VALID,0,VALID,25.339,VALID,339,VALID,0.741797,
2012-04-10, 03:14:05,VALID,1003.69,VALID,0,VALID,88.167,VALID,0,VALID,25.337,VALID,296,VALID,0.312891,
2012-04-10, 03:15:05,VALID,1003.65,VALID,0,VALID,88.1288,VALID,0,VALID,25.3584,VALID,312,VALID,0.171875,
2012-04-10, 03:16:05,VALID,1003.67,VALID,0,VALID,88.1365,VALID,0,VALID,25.3584,VALID,298,VALID,0.1375,
2012-04-10, 03:17:05,VALID,1003.7,VALID,0,VALID,88.1441,VALID,0,VALID,25.339,VALID,301,VALID,0.273047,
2012-04-10, 03:18:05,VALID,1003.7,VALID,0,VALID,88.0678,VALID,0,VALID,25.3584,VALID,291,VALID,0.276953,
2012-04-10, 03:19:05,VALID,1003.69,VALID,0,VALID,87.9762,VALID,0,VALID,25.3584,VALID,301,VALID,0.499609,
2012-04-10, 03:20:05,VALID,1003.71,VALID,0,VALID,87.9076,VALID,0,VALID,25.3565,VALID,298,VALID,0.351563,
2012-04-10, 03:21:05,VALID,1003.72,VALID,0,VALID,87.9305,VALID,0,VALID,25.3565,VALID,297,VALID,0.172266,
2012-04-10, 03:22:05,VALID,1003.73,VALID,0,VALID,87.9762,VALID,0,VALID,25.3565,VALID,299,VALID,0.0789063,
2012-04-10, 03:23:05,VALID,1003.77,VALID,0,VALID,87.9534,VALID,0,VALID,25.3565,VALID,313,VALID,0.00664063,
2012-04-10, 03:24:05,VALID,1003.79,VALID,0,VALID,87.9915,VALID,0,VALID,25.4188,VALID,293,VALID,0.439453,
2012-04-10, 03:25:05,VALID,1003.81,VALID,0,VALID,87.961,VALID,0,VALID,25.376,VALID,289,VALID,0.102734,
2012-04-10, 03:26:05,VALID,1003.84,VALID,0,VALID,87.8771,VALID,0,VALID,25.4169,VALID,289,VALID,0.0367187,
2012-04-10, 03:27:05,VALID,1003.85,VALID,0,VALID,87.9076,VALID,0,VALID,25.4149,VALID,289,VALID,0.20625,
2012-04-10, 03:28:05,VALID,1003.87,VALID,0,VALID,87.9152,VALID,0,VALID,25.4149,VALID,289,VALID,0.190625,
2012-04-10, 03:29:05,VALID,1003.88,VALID,0,VALID,87.9762,VALID,0,VALID,25.4344,VALID,289,VALID,0.182812,
2012-04-10, 03:30:05,VALID,1003.95,VALID,0,VALID,87.8847,VALID,0,VALID,25.4539,VALID,289,VALID,0.282031,
2012-04-10, 03:31:05,VALID,1003.97,VALID,0,VALID,87.7932,VALID,0,VALID,25.4558,VALID,272,VALID,0.548437,
2012-04-10, 03:32:05,VALID,1004.06,VALID,0,VALID,87.9152,VALID,0,VALID,25.4948,VALID,253,VALID,0.660156,
2012-04-10, 03:33:05,VALID,1004.14,VALID,0,VALID,88.1288,VALID,0.0815089,VALID,25.4539,VALID,192,VALID,1.08398,
2012-04-10, 03:34:05,VALID,1004.22,VALID,0,VALID,88.2051,VALID,0,VALID,25.4753,VALID,176,VALID,1.29844,
2012-04-10, 03:35:05,VALID,1004.3,VALID,0,VALID,88.3195,VALID,0,VALID,25.4753,VALID,174,VALID,1.30078,
2012-04-10, 03:36:05,VALID,1004.37,VALID,0,VALID,88.0907,VALID,0,VALID,25.4539,VALID,153,VALID,1.68203,
2012-04-10, 03:37:05,VALID,1004.45,VALID,0,VALID,87.9762,VALID,0,VALID,25.4539,VALID,167,VALID,1.86875,
2012-04-10, 03:38:05,VALID,1004.45,VALID,0,VALID,86.9616,VALID,0,VALID,25.4344,VALID,180,VALID,1.76289,
2012-04-10, 03:39:05,VALID,1004.49,VALID,0,VALID,87.3354,VALID,0,VALID,25.4344,VALID,141,VALID,1.19805,
2012-04-10, 03:40:05,VALID,1004.52,VALID,0,VALID,85.474,VALID,0,VALID,25.376,VALID,163,VALID,1.03516,
2012-04-10, 03:41:05,VALID,1004.49,VALID,0,VALID,84.3525,VALID,0,VALID,25.3176,VALID,191,VALID,0.636328,
2012-04-10, 03:42:05,VALID,1004.52,VALID,0,VALID,81.7663,VALID,0,VALID,25.2786,VALID,251,VALID,1.66289,
2012-04-10, 03:43:05,VALID,1004.54,VALID,0,VALID,81.9342,VALID,0,VALID,25.2397,VALID,168,VALID,1.19141,
2012-04-10, 03:44:05,VALID,1004.59,VALID,0,VALID,81.5451,VALID,0,VALID,25.2007,VALID,194,VALID,1.63047,